Stations météo

réclame
Mon MeteoGroup
Carcassonne, France (7635): Température de l'air & dewpoint: 20.08.2019 03:00:00 - 26.08.2019 03:00:00 (CEST)Carcassonne, France (7635): Température de l'air 5cm: 20.08.2019 03:00:00 - 26.08.2019 03:00:00 (CEST)Carcassonne, France (7635): Température de l'air -20cm & Température de l'air -100cm: 20.08.2019 03:00:00 - 26.08.2019 03:00:00 (CEST)Carcassonne, France (7635): Vitesse du vent & gusts: 20.08.2019 03:00:00 - 26.08.2019 03:00:00 (CEST)Carcassonne, France (7635): Direction du vent: 20.08.2019 03:00:00 - 26.08.2019 03:00:00 (CEST)Carcassonne, France (7635): reduced air pressure: 20.08.2019 03:00:00 - 26.08.2019 03:00:00 (CEST)Carcassonne, France (7635): visibility: 20.08.2019 03:00:00 - 26.08.2019 03:00:00 (CEST)Carcassonne, France (7635): Ensoleillement: 20.08.2019 03:00:00 - 26.08.2019 03:00:00 (CEST)Carcassonne, France (7635): Quantités de précipitations: 20.08.2019 03:00:00 - 26.08.2019 03:00:00 (CEST)
Date & Time tt [°C] td [°C] tt 5cm [°C] tt -20cm [°C] tt -100cm [°C] ff [km/h] ff [knt] fx [km/h] fx [knt] dd ppp [hPa] vv [km] sd [min] rr [mm]
26.08.2019 03:00:00 - - - - - - - - - - - - - -
26.08.2019 02:00:00 20,1 14,2 17,4 26,7 23,0 5 3 12 6 S 1016,8 36 0 0,0
26.08.2019 01:00:00 20,7 14,3 17,3 27,0 23,0 5 3 10 5 SSE 1016,8 38 0 0,0
26.08.2019 00:00:00 21,5 15,1 18,0 27,3 23,0 5 3 10 6 S 1016,7 41 0 0,0
25.08.2019 23:00:00 22,5 15,1 18,5 27,5 23,0 3 2 8 4 SSE 1016,5 47 0 0,0
25.08.2019 22:00:00 23,9 15,1 20,0 27,8 23,0 3 2 12 6 ESE 1016,2 47 0 0,0
25.08.2019 21:00:00 27,2 14,9 21,9 27,9 23,0 4 2 13 7 W 1015,3 45 16 0,0
25.08.2019 20:00:00 30,8 13,6 30,1 27,8 23,0 6 3 13 7 W 1014,8 54 60 0,0
25.08.2019 19:00:00 33,8 11,6 35,3 27,6 23,0 8 4 14 8 WNW 1014,7 54 60 0,0
25.08.2019 18:00:00 34,4 9,6 37,4 27,2 23,0 6 4 15 8 W 1014,9 57 60 0,0
25.08.2019 17:00:00 34,0 11,2 37,7 26,6 23,0 5 3 18 10 WNW 1015,1 9 60 0,0
25.08.2019 16:00:00 32,9 14,0 36,7 26,0 23,0 8 4 21 11 WNW 1015,7 24 60 0,0
25.08.2019 15:00:00 31,1 17,4 34,3 25,3 23,0 11 6 26 14 W 1016,4 18 60 0,0
25.08.2019 14:00:00 28,7 17,2 32,3 24,7 23,0 13 7 28 15 W 1017,1 15 60 0,0
25.08.2019 13:00:00 26,7 18,0 30,3 24,2 23,0 14 7 29 16 W 1018,0 14 60 0,0
25.08.2019 12:00:00 25,2 18,2 28,5 24,0 23,0 16 9 27 14 W 1018,6 12 60 0,0
25.08.2019 11:00:00 23,7 17,9 23,7 23,9 23,0 14 7 31 17 W 1019,2 13 54 0,0
25.08.2019 10:00:00 22,4 17,7 21,5 24,0 23,0 14 8 33 18 WSW 1019,3 16 4 0,0
25.08.2019 09:00:00 20,8 17,6 20,1 24,1 23,0 14 8 31 17 W 1019,1 13 7 0,0
25.08.2019 08:00:00 20,0 18,0 18,7 24,3 23,0 10 6 26 14 WSW 1018,7 13 12 0,0
25.08.2019 07:00:00 19,1 17,8 14,9 24,5 23,0 13 7 27 14 SW 1018,4 10 0 0,0
25.08.2019 06:00:00 16,9 15,9 14,0 24,8 22,9 6 3 14 7 S 1018,5 13 0 0,0
25.08.2019 05:00:00 16,6 15,6 14,0 25,1 23,0 3 2 6 4 S 1018,3 8 0 0,0
25.08.2019 04:00:00 17,0 15,5 14,8 25,3 22,9 3 2 11 6 W 1018,0 10 0 0,0
25.08.2019 03:00:00 18,4 16,6 16,5 25,6 23,0 5 3 10 5 S 1017,5 18 0 0,0
25.08.2019 02:00:00 18,8 16,8 16,3 25,9 22,9 5 3 9 5 S 1017,7 19 0 0,0
25.08.2019 01:00:00 19,0 16,8 16,1 26,2 22,9 3 2 8 4 SSE 1017,9 20 0 0,0
25.08.2019 00:00:00 19,9 16,3 16,7 26,5 23,0 0 0 6 3 N 1017,8 25 0 0,0
24.08.2019 23:00:00 22,7 16,9 19,8 26,7 23,0 4 2 21 11 E 1017,5 28 0 0,0
24.08.2019 22:00:00 24,6 16,6 23,4 26,9 22,9 9 5 29 15 E 1017,2 34 0 0,0
24.08.2019 21:00:00 25,8 16,4 24,8 27,0 23,0 20 11 34 18 ENE 1016,7 36 18 0,0
24.08.2019 20:00:00 28,4 17,0 28,9 27,0 22,9 22 12 31 17 ENE 1016,4 38 60 0,0
24.08.2019 19:00:00 30,9 16,1 33,1 26,8 22,9 19 10 29 16 ENE 1016,2 56 60 0,0
24.08.2019 18:00:00 32,0 16,3 35,3 26,5 23,0 21 11 34 19 ENE 1016,2 51 60 0,0
24.08.2019 17:00:00 32,4 16,7 36,5 26,0 22,9 19 10 32 17 ENE 1016,5 49 60 0,0
24.08.2019 16:00:00 32,1 17,2 36,3 25,4 23,0 19 11 32 18 E 1016,7 48 60 0,0
24.08.2019 15:00:00 31,7 17,2 35,8 24,8 23,0 16 9 32 17 E 1016,9 42 60 0,0
24.08.2019 14:00:00 30,2 18,3 33,9 24,3 22,9 18 10 33 18 E 1017,4 35 60 0,0
24.08.2019 13:00:00 28,6 18,7 32,1 23,8 22,9 20 11 33 18 E 1018,0 30 60 0,0
24.08.2019 12:00:00 26,9 17,9 28,8 23,5 22,9 19 10 45 24 E 1018,5 22 60 0,0
24.08.2019 11:00:00 24,8 17,3 26,1 23,4 22,9 23 13 41 22 E 1018,9 19 60 0,0
24.08.2019 10:00:00 22,9 18,2 23,6 23,5 23,0 28 15 40 21 E 1018,9 17 60 0,0
24.08.2019 09:00:00 20,8 18,2 19,6 23,6 22,9 16 9 26 14 E 1019,0 15 60 0,0
24.08.2019 08:00:00 19,0 18,0 17,7 23,8 22,9 11 6 18 10 E 1018,9 7 33 0,0
24.08.2019 07:00:00 18,6 17,4 17,6 24,0 22,9 9 5 18 10 E 1018,9 10 0 0,0
24.08.2019 06:00:00 19,2 17,7 18,2 24,2 23,0 12 7 27 15 E 1018,8 14 0 0,0
24.08.2019 05:00:00 20,1 18,4 18,8 24,5 23,0 11 6 26 14 ESE 1019,1 20 0 0,0
24.08.2019 04:00:00 19,6 16,8 18,7 24,7 23,0 11 6 27 14 E 1019,1 32 0 0,0
24.08.2019 03:00:00 20,1 16,9 15,3 25,0 22,9 14 7 29 15 E 1019,1 35 0 0,0
24.08.2019 02:00:00 17,7 14,4 14,9 25,3 22,9 4 2 12 7 NE 1019,2 44 0 0,0
24.08.2019 01:00:00 18,4 14,7 15,4 25,6 23,0 0 0 6 3 N 1018,8 44 0 0,0
24.08.2019 00:00:00 19,8 14,6 16,2 25,8 23,0 3 1 7 4 S 1018,4 51 0 0,0
23.08.2019 23:00:00 22,5 14,1 18,0 26,1 23,0 2 1 18 10 E 1018,0 56 0 0,0
23.08.2019 22:00:00 25,4 14,2 23,9 26,3 23,0 11 6 19 11 E 1017,8 59 0 0,0
23.08.2019 21:00:00 27,0 13,4 25,5 26,4 23,0 15 8 27 14 E 1017,3 59 18 0,0
23.08.2019 20:00:00 29,9 10,9 30,0 26,4 23,0 19 11 34 18 ENE 1016,8 57 60 0,0
23.08.2019 19:00:00 32,4 11,0 33,9 26,2 23,0 21 11 31 17 E 1016,4 47 60 0,0
23.08.2019 18:00:00 33,9 10,5 37,7 25,8 23,0 10 6 22 12 E 1016,4 60 60 0,0
23.08.2019 17:00:00 34,1 9,4 39,5 25,2 23,0 9 5 21 11 NE 1016,6 27 60 0,0
23.08.2019 16:00:00 33,9 9,9 39,6 24,4 23,0 8 4 20 11 N 1017,1 60 60 0,0
23.08.2019 15:00:00 32,7 10,1 38,5 23,8 23,0 5 3 16 8 N 1017,7 60 60 0,0
23.08.2019 14:00:00 30,8 13,1 35,7 23,1 23,0 6 4 15 8 WNW 1018,4 60 60 0,0
23.08.2019 13:00:00 28,9 11,9 33,0 22,5 23,0 5 3 18 10 WNW 1019,1 55 60 0,0
23.08.2019 12:00:00 26,7 13,1 30,1 22,1 23,0 9 5 18 10 W 1019,8 52 60 0,0
23.08.2019 11:00:00 23,8 12,1 25,5 21,9 23,1 7 4 16 9 W 1020,4 53 60 0,0
23.08.2019 10:00:00 20,6 13,8 22,7 21,9 23,0 6 4 11 6 W 1020,8 48 60 0,0
23.08.2019 09:00:00 17,7 13,2 15,5 22,1 23,1 3 1 5 3 WNW 1021,1 56 60 0,0
23.08.2019 08:00:00 14,3 12,8 11,7 22,3 23,0 4 2 5 3 W 1021,2 52 34 0,0
23.08.2019 07:00:00 13,5 11,9 11,7 22,5 23,1 4 2 7 4 S 1021,0 60 0 0,0
23.08.2019 06:00:00 13,8 11,8 11,7 22,7 23,1 4 2 8 5 SSW 1021,3 60 0 0,0
23.08.2019 05:00:00 14,7 11,8 13,0 23,0 23,1 4 2 10 5 S 1021,3 60 0 0,0
23.08.2019 04:00:00 15,5 11,9 14,0 23,2 23,1 7 4 14 7 SSE 1021,4 60 0 0,0
23.08.2019 03:00:00 15,6 12,0 13,4 23,5 23,1 7 4 13 7 S 1021,3 60 0 0,0
23.08.2019 02:00:00 15,9 12,1 13,6 23,8 23,1 2 1 12 7 SSE 1021,5 60 0 0,0
23.08.2019 01:00:00 17,0 11,9 14,2 24,1 23,1 8 5 16 8 S 1021,5 60 0 0,0
23.08.2019 00:00:00 17,6 12,1 14,3 24,3 23,2 3 2 10 5 S 1021,6 60 0 0,0
22.08.2019 23:00:00 19,9 11,1 15,8 24,6 23,2 3 1 17 9 WNW 1021,7 60 0 0,0
22.08.2019 22:00:00 21,7 10,5 15,9 24,8 23,2 9 5 17 9 WSW 1021,5 60 0 0,0
22.08.2019 21:00:00 23,1 10,8 19,9 24,8 23,2 8 4 16 9 W 1020,8 60 21 0,0
22.08.2019 20:00:00 26,5 11,8 26,6 24,8 23,2 9 5 28 15 WNW 1020,3 45 60 0,0
22.08.2019 19:00:00 28,6 10,7 30,4 24,6 23,2 16 9 34 18 WNW 1020,0 51 60 0,0
22.08.2019 18:00:00 29,0 9,7 31,8 24,3 23,2 19 10 34 19 WNW 1020,3 46 60 0,0
22.08.2019 17:00:00 29,0 9,7 32,7 23,8 23,3 18 10 35 19 WNW 1020,4 43 60 0,0
22.08.2019 16:00:00 28,7 9,9 32,3 23,3 23,3 20 11 40 22 W 1020,8 42 60 0,0
22.08.2019 15:00:00 27,9 10,1 32,0 22,7 23,3 18 10 41 22 W 1021,1 46 60 0,0
22.08.2019 14:00:00 27,4 11,0 30,4 22,2 23,3 23 12 40 22 WNW 1021,4 50 60 0,0
22.08.2019 13:00:00 26,4 11,3 29,3 21,7 23,3 22 12 48 26 W 1021,9 57 60 0,0
22.08.2019 12:00:00 24,8 12,7 26,6 21,4 23,3 21 11 38 20 W 1022,1 60 60 0,0
22.08.2019 11:00:00 22,4 12,9 24,5 21,2 23,3 21 11 36 20 W 1022,3 60 60 0,0
22.08.2019 10:00:00 20,8 13,5 20,7 21,2 23,3 17 9 30 16 W 1022,5 60 60 0,0
22.08.2019 09:00:00 18,6 12,6 16,5 21,4 23,4 16 8 27 15 W 1022,2 60 45 0,0
22.08.2019 08:00:00 16,1 12,8 14,3 21,5 23,4 6 4 18 10 W 1021,8 58 12 0,0
22.08.2019 07:00:00 16,0 12,5 14,2 21,7 23,4 10 5 17 9 W 1021,3 60 0 0,0
22.08.2019 06:00:00 16,6 12,5 15,6 21,9 23,4 9 5 21 11 SW 1021,1 60 0 0,0
22.08.2019 05:00:00 16,8 12,7 15,8 22,1 23,4 10 5 21 12 W 1021,1 60 0 0,0
22.08.2019 04:00:00 17,7 12,8 16,8 22,3 23,4 13 7 22 12 W 1020,8 60 0 0,0
22.08.2019 03:00:00 18,2 13,1 17,4 22,5 23,5 11 6 24 13 W 1021,0 60 0 0,0
22.08.2019 02:00:00 18,3 13,4 16,2 22,6 23,5 10 5 19 10 W 1021,5 60 0 0,0
22.08.2019 01:00:00 18,6 13,5 14,8 22,8 23,5 5 3 16 9 W 1021,6 60 0 0,0
22.08.2019 00:00:00 17,2 13,3 14,8 23,0 23,5 4 2 11 6 W 1021,5 60 0 0,0
21.08.2019 23:00:00 17,7 13,4 15,2 23,1 23,5 5 3 12 6 W 1021,4 60 0 0,0
21.08.2019 22:00:00 18,7 13,1 16,9 23,3 23,5 7 4 18 10 WNW 1020,9 60 0 0,0
21.08.2019 21:00:00 21,5 11,5 19,8 23,3 23,6 10 5 19 10 WSW 1020,2 60 0 0,0
21.08.2019 20:00:00 22,5 10,9 21,9 23,3 23,6 11 6 22 12 W 1019,7 60 0 0,0
21.08.2019 19:00:00 24,2 10,8 24,7 23,2 23,6 16 9 32 17 W 1019,8 55 54 0,0
21.08.2019 18:00:00 25,6 11,0 26,7 23,0 23,6 18 10 32 18 W 1019,7 60 53 0,0
21.08.2019 17:00:00 25,7 11,1 25,9 22,8 23,6 19 11 33 18 W 1019,8 60 32 0,0
21.08.2019 16:00:00 23,5 11,9 23,7 22,6 23,6 16 9 31 17 W 1020,4 36 2 0,0
21.08.2019 15:00:00 22,1 11,8 23,5 22,3 23,7 18 10 39 21 W 1021,1 60 10 0,0
21.08.2019 14:00:00 23,0 11,7 24,3 21,9 23,7 25 13 42 23 W 1021,1 42 40 0,0
21.08.2019 13:00:00 22,9 12,5 23,9 21,5 23,7 25 13 44 24 W 1021,5 42 51 0,0
21.08.2019 12:00:00 20,6 11,5 21,4 21,3 23,7 28 15 44 24 W 1022,1 46 46 0,0
21.08.2019 11:00:00 20,1 12,8 21,0 21,2 23,7 29 16 45 25 W 1022,3 41 60 0,0
21.08.2019 10:00:00 18,6 13,7 18,9 21,2 23,7 16 9 36 19 W 1022,5 36 60 0,0
21.08.2019 09:00:00 17,2 13,7 15,7 21,3 23,8 17 9 31 17 W 1023,2 48 60 0,0
21.08.2019 08:00:00 14,7 13,2 13,3 21,5 23,8 12 7 23 12 W 1023,3 32 36 0,0
21.08.2019 07:00:00 14,1 13,1 13,1 21,7 23,8 12 6 26 14 W 1023,3 35 0 0,0
21.08.2019 06:00:00 15,0 13,4 14,2 21,9 23,8 16 9 30 16 W 1023,2 49 0 0,0
21.08.2019 05:00:00 15,7 13,5 14,8 22,1 23,8 19 10 34 19 W 1023,3 48 0 0,0
21.08.2019 04:00:00 15,6 13,8 14,9 22,3 23,8 14 8 29 16 W 1023,6 39 0 0,0
21.08.2019 03:00:00 15,9 14,1 15,0 22,5 23,8 10 6 26 14 W 1024,1 39 0 0,0
21.08.2019 02:00:00 15,8 14,0 13,8 22,8 23,9 14 8 25 13 W 1024,2 36 0 0,0
21.08.2019 01:00:00 15,2 13,9 14,1 23,0 23,9 10 5 16 9 WNW 1024,6 37 0 0,0
21.08.2019 00:00:00 17,1 14,2 16,2 23,2 23,9 11 6 23 12 W 1024,7 56 0 0,0
20.08.2019 23:00:00 17,6 13,9 16,0 23,4 23,9 12 7 27 15 WSW 1024,6 59 0 0,0
20.08.2019 22:00:00 16,7 14,2 14,8 23,5 23,9 8 4 17 9 W 1024,7 56 0 0,0
20.08.2019 21:00:00 17,7 14,0 16,7 23,6 23,9 11 6 25 13 W 1024,4 60 14 0,0
20.08.2019 20:00:00 20,4 14,1 21,0 23,6 23,9 19 10 35 19 WNW 1023,9 58 60 0,0
20.08.2019 19:00:00 21,3 14,5 21,8 23,5 23,9 21 12 40 22 WNW 1023,8 48 60 0,0
20.08.2019 18:00:00 21,3 14,9 21,8 23,2 23,9 24 13 41 22 W 1023,3 44 60 0,0
20.08.2019 17:00:00 20,4 15,4 22,9 23,0 24,0 21 12 35 19 W 1023,5 47 56 0,0
20.08.2019 16:00:00 20,0 16,4 19,1 22,9 23,9 14 8 34 18 W 1023,7 50 32 0,0
20.08.2019 15:00:00 17,2 15,9 16,0 22,9 24,0 18 10 36 19 WNW 1024,2 56 0 0,6
20.08.2019 14:00:00 16,3 15,3 15,8 23,0 24,0 12 7 27 15 W 1024,0 8 0 1,0
20.08.2019 13:00:00 16,1 15,3 15,5 23,1 24,0 15 8 39 21 W 1024,0 16 0 0,6
20.08.2019 12:00:00 15,7 15,1 15,5 23,3 24,0 23 13 40 22 W 1023,8 15 0 1,6
20.08.2019 11:00:00 15,5 14,9 15,3 23,4 24,0 19 11 35 19 W 1022,9 8 0 2,3
20.08.2019 10:00:00 15,5 14,9 15,2 23,6 24,0 14 8 28 15 W 1022,2 5 0 1,4
20.08.2019 09:00:00 15,5 15,0 15,0 23,9 24,0 15 8 30 16 W 1021,9 6 0 2,2
20.08.2019 08:00:00 15,4 14,8 14,8 24,1 24,0 10 6 25 14 WSW 1021,9 7 0 1,6
20.08.2019 07:00:00 15,2 14,4 14,7 24,4 24,0 12 6 26 14 W 1021,6 4,6 0 2,8
20.08.2019 06:00:00 15,5 14,7 15,1 24,6 24,0 15 8 29 16 WSW 1020,7 3,0 0 2,8
20.08.2019 05:00:00 16,2 15,4 15,6 24,9 24,0 14 7 25 13 WSW 1020,3 6 0 1,3
20.08.2019 04:00:00 16,3 15,3 15,6 25,1 24,0 11 6 25 13 W 1020,2 8 0 1,0
20.08.2019 03:00:00 16,4 14,9 15,6 25,4 24,0 12 7 26 14 W 1020,6 8 0 1,2

tt = Température de l'air
td = dewpoint
tt 5cm = Température de l'air 5cm
tt -20cm = Température de l'air -20cm
tt -100cm = Température de l'air -100cm
ff = Vitesse du vent
fx = gusts
dd = Direction du vent
ppp = reduced air pressure
vv = visibility
sd = Ensoleillement
rr = Quantités de précipitations

stations d'obs. à proximité